Location: Perryvale
(54.4667°N, 113.3833°W)
Time: 09:51:43
(UTC+00:00)

Vanguard 3 - Pass Details

Date: 23 May 2024
Orbit: 509 x 3231 km, 33.3° (Epoch: 16 June)

Event Time Altitude Azimuth Distance (km) Brightness Sun altitude
Rises 05:44:01 0° 253° (WSW) 5,177 11.4 -11.5°
Reaches altitude 10° 05:47:39 10° 242° (WSW) 4,557 10.9 -11.7°
Maximum altitude 05:58:20 28° 191° (S) 4,110 10.2 -12.3°
Enters shadow 06:11:22 12° 144° (SE) 5,888 10.9 -13.0°
